Location: Unspecified
(44.4377°N, 88.0525°W)
Time: 20:33:09
(UTC-06:00)

CZ-3 Stage 3 - Visible Passes

Search period start: 04 March 2015 00:00
Search period end: 14 March 2015 01:00
Orbit: 430 x 34800 km, 31.0° (Epoch: 03 March)

Date Brightness Start Highest point End Pass type
(mag) Time Alt. Az. Time Alt. Az. Time Alt. Az.
05 Mar 7.2 14:54:27 10° SW 23:41:16 36° WSW 23:47:45 33° SW visible
06 Mar 7.0 11:12:51 10° S 19:23:23 71° SSW 20:21:00 30° SE visible
08 Mar 7.2 15:49:36 10° SW 00:35:49 34° WSW 00:43:54 31° SW visible
09 Mar 7.0 12:07:05 10° S 20:19:50 71° SSW 21:17:08 28° SE visible
11 Mar 7.2 15:44:47 10° SW 00:30:17 33° WSW 00:40:00 29° SW visible
12 Mar 7.0 12:01:23 10° S 20:16:07 70° SSW 21:13:13 25° SE visible
